Location: Arrodets-la-Barthe
(43.0306°N, 0.2829°E)
Time: 19:58:42
(UTC+00:00)

CSL-04 Rocket - Pass Details

Date: 05 June 2022
Orbit: 807 x 859 km, 98.9° (Epoch: 25 June)

Event Time Altitude Azimuth Distance (km) Brightness Sun altitude
Rises 20:40:15 0° 199° (SSW) 3,333 6.5 -10.2°
Reaches altitude 10° 20:43:00 10° 213° (SSW) 2,414 6.0 -10.6°
Maximum altitude 20:47:18 24° 266° (W) 1,639 5.7 -11.1°
Drops below altitude 10° 20:51:40 10° 320° (NW) 2,456 7.7 -11.7°
Sets 20:54:30 0° 334° (NNW) 3,405 8.5 -12.0°
